Regional Weather Roundup
Issued by NWS

Home | Current Version | Previous Version | Text Only | Print | Product List | Glossary On
Versions: 1 2 3 4 5 6 7 8 9 10 11 12 13 14 15 16 17 18 19 20 21 22 23 24 25 26 27
000
ASUS42 KFFC 262103
RWRGA
WEATHER ROUNDUP FOR GEORGIA
NATIONAL WEATHER SERVICE PEACHTREE CITY GA
500 PM EDT TUE JUL 26 2016

NOTE: "FAIR" INDICATES FEW OR NO CLOUDS BELOW 12,000 FEET WITH NO
SIGNIFICANT WEATHER AND/OR OBSTRUCTIONS TO VISIBILITY.

* = USE WITH CAUTION. THE STATIONS MARKED WITH AN ASTERISK MAY NOT
REPORT WEATHER SUCH AS PRECIPITATION, FOG, OR THUNDER AND ARE NOT
QUALITY CONTROLLED BY NWS.

THE REMARK "TC" DENOTES TEMPERATURE READING IN DEGREES CELSIUS.

GAZ001>058-262200-
NORTH GEORGIA

CITY           SKY/WX    TMP DP  RH WIND       PRES   REMARKS
ATLANTA        MOSUNNY   95  58  28 SE8       30.01F HX  94
ATHENS         SUNNY     99  63  30 VRB7      30.00F HX 101
CHAMBLEE       SUNNY     95  65  37 SW12      30.00F HX  97
PEACHTREE CITY MOSUNNY   95  67  39 SE10G17   30.01F HX  99
ROME           SUNNY     96  66  37 S12G18    29.96F HX  99
WEST ATLANTA   SUNNY     95  60  31 S9        29.99F HX  95
GAINESVILLE    MOSUNNY   89  68  49 W5        30.04F HX  93
CARTERSVILLE   SUNNY     94  68  42 VRB5      29.99F HX  98


CITY           SKY/WX    TMP DP  RH WIND       PRES   REMARKS
DALTON*        MOSUNNY   95  70  43 SE6       29.96F HX 101
LAWRENCEVILLE* MOSUNNY   91  68  46 S7        30.01F HX  95
MARIETTA       MOSUNNY   93  68  44 SE8       30.01F HX  97
KENNESAW*      MOSUNNY   93  66  40 S8        29.95F HX  96
CANTON*        SUNNY     93  52  24 S5        30.03F HX  90
BLAIRSVILLE*   RAIN     N/A N/A N/A MISG      30.07S
$$

GAZ059>098-102>109-262200-
CENTRAL GEORGIA

CITY           SKY/WX    TMP DP  RH WIND       PRES   REMARKS
AUGUSTA-BUSH   MOSUNNY  100  63  29 SW10G16   29.97F HX 102
AUGUSTA-DANIEL SUNNY     98  65  33 MISG      29.99F HX 101
COLUMBUS       SUNNY     95  68  41 S13       29.97F HX  99
MACON          MOSUNNY   97  69  40 S8        29.99F HX 103
ROBINS AFB     MOSUNNY   96  71  43 VRB6      29.98F HX 103


CITY           SKY/WX    TMP DP  RH WIND       PRES   REMARKS
LAGRANGE*      PTSUNNY   97  73  46 SE9       29.99F HX 107
MILLEDGEVILLE* MOSUNNY   99  72  41 CALM      29.99F HX 107
$$

GAZ099>101-110>166-262200-
SOUTH GEORGIA

CITY           SKY/WX    TMP DP  RH WIND       PRES   REMARKS
SAVANNAH       PTSUNNY   93  73  52 S17       30.01F HX 102
VALDOSTA       CLOUDY    87  74  64 S6        30.04F HX  95
ALMA           MOSUNNY   94  69  44 VRB3      30.01F HX  99
ST SIMONS      SUNNY     90  74  59 SE14      30.02F HX  99
FT STEWART     PTSUNNY   89  75  63 SE5       29.99F HX  99
ALBANY         CLOUDY    89  73  59 VRB3      30.04F HX  97
HUNTER AFB     MOSUNNY   88  76  67 S12       30.00S HX  99
MOODY AFB      PTSUNNY   86  72  62 S8        30.04S HX  92
BRUNSWICK      SUNNY     91  77  62 SE12      30.03S HX 105


CITY           SKY/WX    TMP DP  RH WIND       PRES   REMARKS
BAINBRIDGE*    PTSUNNY   84  73  70 S17G26    30.04R HX  91
MOULTRIE*      SUNNY     90  73  58 SE8       30.04F HX  98
VIDALIA*       PTSUNNY   93  68  43 S3        30.02S HX  97
WAYCROSS*      CLOUDY    96  74  48 S6        30.01S HX 107
DOUGLAS*       PTSUNNY   91  68  46 S5        30.02F HX  95
$$




USA.gov is the U.S. government's official web portal to all federal, state and local government web resources and services.